Location: São Paulo
(23.5507°S, 46.6334°W)
Time: 07:40:48
(UTC-03:00)

Explorer 7 - Pass Details

Date: 22 February 2026
Orbit: 430 x 541 km, 50.2° (Epoch: 10 March)

Event Time Altitude Azimuth Distance (km) Brightness Sun altitude
Rises 01:24:42 0° 270° (W) 2,707 - -52.7°
Reaches altitude 10° 01:28:32 10° 235° (SW) 1,813 - -52.3°
Maximum altitude 01:29:49 11° 216° (SW) 1,734 - -52.2°
Drops below altitude 10° 01:31:07 10° 198° (SSW) 1,808 - -52.0°
Sets 01:34:55 0° 162° (SSE) 2,683 - -51.6°
